sat.trackr.live / text

‹ back to catalog

STARLINK-31670

NORAD 59490 · 2024-071G

PAYLOAD ACTIVE UNKNOWN

§ Identity

Operator
Country
US
Launch date
2024-04-13
Launch site
AFETR
Launch vehicle
Mass (kg)
RCS (m²)

Purposes: comms

External: N2YO · Heavens-Above · Gunter

§ Orbital elements

Epoch: 2026-09-21T10:54:50.628960Z

Period
94.27 min
Inclination
43.0025°
Eccentricity
0.0001357
Mean motion
15.27577927 rev/d
Perigee alt
482.1 km
Apogee alt
484.0 km
Semi-major
6,861.2 km
B*
9.1036e-6
RAAN
325.5810°
Arg perigee
267.5258°
Mean anomaly
92.5439°
Rev number
13,801

§ Raw data

STARLINK-316701 59490U 24071G   26264.45475265 -.00000012  00000+0  91036-5 0  99962 59490  43.0025 325.5810 0001357 267.5258  92.5439 15.27577927138015

JSON: /api/v1/satellites/59490 · /tle

For live sub-satellite position, see the globe view (requires WebGL).

§ Visibility from observer

Set your observer location to see the next 7 days of passes ≥ 10°. The values pass through the URL so the page stays shareable.

No JS? Fill the form by hand. The geolocation button needs JavaScript.